User: anonymous   Login
Location: Unspecified
(0.0000°N, 0.0000°E)
Time: 08:14:11
(UTC+00:00)
Language:

ETS 8 - Orbit

View from above orbital plane
View from above orbital plane
View from above satellite
View from above satellite

Ground track
Ground track

The orbit data is extracted from the following two-line orbital elements,

1 29656U 06059A   19051.89667469 -.00000307  00000-0  00000+0 0  9999
2 29656   6.6656  55.9928 0009363 256.6431 308.3071  0.99009402 44536
Epoch (UTC): 20 February 2019 21:31:12
Eccentricity: 0.0009363
inclination: 6.6656°
perigee height: 36104 km
apogee height: 36183 km
right ascension of ascending node: 55.9928°
argument of perigee: 256.6431°
revolutions per day: 0.99009402
mean anomaly at epoch: 308.3071°
orbit number at epoch: 4453

The dashed part of the orbit path shows where the satellite is in the earth's shadow,  

DLR